Regional Weather Roundup
Issued by NWS

Home | Current Version | Previous Version | Text Only | Print | Product List | Glossary On
Versions: 1 2 3 4 5 6 7 8 9 10 11 12 13 14 15 16 17 18 19 20 21 22 23 24 25 26 27 28 29 30 31 32 33 34 35 36 37 38 39 40 41 42 43 44 45 46 47 48 49 50
000
ASUS45 KREV 281910
RWRNV
NEVADA REGIONAL WEATHER ROUNDUP
NATIONAL WEATHER SERVICE RENO NV
1200 PM PDT THU MAY 28 2015

NOTE: "FAIR" INDICATES FEW OR NO CLOUDS BELOW 12,000 FEET WITH NO
SIGNIFICANT WEATHER AND/OR OBSTRUCTIONS TO VISIBILITY.

NVZ001-003-004-282000-
WESTERN NEVADA

CITY           SKY/WX    TMP DP  RH WIND       PRES   REMARKS
RENO           MOSUNNY   77  32  19 VRB6      30.10F
CARSON CITY    FAIR      75  23  14 S5        30.12F
MINDEN         FAIR      75  27  16 SW6       30.11
SLIDE MTN        N/A     52  32  46 SE10        N/A
PYRAMID LAKE     N/A     68 N/A N/A VRB7        N/A
FALLON         PTSUNNY   78  38  23 N8        30.07F
LOVELOCK       SUNNY     77  38  24 VRB5      30.08S
HAWTHORNE      SUNNY     77  34  20 W7        30.09F
$$

NVZ002-CAZ072-073-282000-
NORTHERN AND CENTRAL SIERRA

CITY           SKY/WX    TMP DP  RH WIND       PRES   REMARKS
S. LAKE TAHOE  SUNNY     68  32  26 MISG      30.19S
TRUCKEE        MOSUNNY   70  36  28 S5        30.18F
SQUAW VLY 8000   N/A     64  27  24 S5          N/A
SUSANVILLE     SUNNY     75  43  31 E5        30.11F
BLUE CANYON    SUNNY     68  20  16 S9        30.18S
MAMMOTH LAKES  FAIR      68  16  13 SE8       30.22F
BRIDGEPORT     FAIR      72  16  12 S8        30.17S
$$

NVZ030-031-036-282000-
NORTHERN NEVADA

CITY           SKY/WX    TMP DP  RH WIND       PRES   REMARKS
ELKO           PTSUNNY   69  43  38 SW6       30.13F
WINNEMUCCA     SUNNY     73  41  31 CALM      30.11F
WENDOVER       SUNNY     66  52  59 SE7       30.12F
$$

NVZ035-037-282000-
CENTRAL NEVADA

CITY           SKY/WX    TMP DP  RH WIND       PRES   REMARKS
ELY            PTSUNNY   67  37  33 CALM      30.17F
EUREKA           N/A     72  36  26 NW12G20   30.15F
$$

NVZ013-014-282000-
SOUTH CENTRAL NEVADA

CITY           SKY/WX    TMP DP  RH WIND       PRES   REMARKS
TONOPAH        SUNNY     76  31  19 MISG      30.12F
$$

NVZ017-020-022-282000-
SOUTHERN NEVADA

CITY           SKY/WX    TMP DP  RH WIND       PRES   REMARKS
LAS VEGAS      MOSUNNY   90  33  13 E6        29.92F
N. LAS VEGAS   SUNNY     88  30  12 SE9       29.95F
NELLIS AFB     SUNNY     89  34  14 SW8       29.93F
HENDERSON      SUNNY     89  38  16 VRB3      29.98F
MERCURY        SUNNY     87  31  13 VRB6      29.99F
$$



USA.gov is the U.S. government's official web portal to all federal, state and local government web resources and services.